| time (UTC) | temp F | wind direction | speed knots | gust knots | rain 1hr in | rain 24hr in | rain mn in | humidity % | barometer mb |
| 20260502123042 | 35 | 312 | 0.0 | 0.0 | 0.00 | 0.00 | 0.00 | 85 | 1021.0 |
| 20260502121524 | 32 | 312 | 0.0 | 0.0 | 0.00 | 0.00 | 0.00 | 90 | 1021.0 |
| 20260502114527 | 28 | 312 | 0.0 | 0.0 | 0.00 | 0.00 | 0.00 | 92 | 1020.9 |
| 20260502113022 | 27 | 312 | 0.0 | 0.0 | 0.00 | 0.00 | 0.00 | 92 | 1020.8 |
| 20260502111530 | 28 | 312 | 0.0 | 0.0 | 0.00 | 0.00 | 0.00 | 93 | 1020.8 |
| 20260502110037 | 27 | 311 | 0.0 | 0.0 | 0.00 | 0.00 | 0.00 | 93 | 1020.7 |
| 20260502104525 | 27 | 326 | 0.0 | 0.0 | 0.00 | 0.00 | 0.00 | 92 | 1020.8 |
| 20260502103028 | 27 | 326 | 0.0 | 0.0 | 0.00 | 0.00 | 0.00 | 92 | 1020.6 |
| 20260502101527 | 28 | 326 | 0.0 | 0.0 | 0.00 | 0.00 | 0.00 | 92 | 1020.6 |
| 20260502091516 | 28 | 326 | 0.0 | 0.0 | 0.00 | 0.00 | 0.00 | 91 | 1020.5 |
| 20260502071530 | 29 | 326 | 0.0 | 0.0 | 0.00 | 0.00 | 0.00 | 88 | 1020.5 |
| 20260502070015 | 30 | 326 | 0.0 | 0.0 | 0.00 | 0.00 | 0.00 | 88 | 1020.6 |
| 20260502064520 | 30 | 326 | 0.0 | 0.0 | 0.00 | 0.00 | 0.00 | 88 | 1020.6 |
| 20260502063022 | 30 | 326 | 0.0 | 0.0 | 0.00 | 0.00 | 0.00 | 87 | 1020.6 |
| 20260502061526 | 31 | 326 | 0.0 | 0.0 | 0.00 | 0.00 | 0.00 | 88 | 1020.5 |
| 20260502060028 | 31 | 326 | 0.0 | 0.0 | 0.00 | 0.00 | 0.00 | 87 | 1020.4 |
| 20260502054521 | 31 | 326 | 0.0 | 0.0 | 0.00 | 0.00 | 0.00 | 85 | 1020.4 |
| 20260502053019 | 32 | 326 | 0.0 | 0.0 | 0.00 | 0.00 | 0.00 | 85 | 1020.2 |
| 20260502051525 | 32 | 326 | 0.0 | 0.0 | 0.00 | 0.00 | 0.00 | 85 | 1020.2 |
| 20260502050033 | 33 | 326 | 0.0 | 0.0 | 0.00 | 0.00 | 0.00 | 84 | 1020.1 |
| 20260502044526 | 33 | 326 | 0.0 | 0.0 | 0.00 | 0.00 | 0.00 | 82 | 1020.0 |
| 20260502043015 | 34 | 326 | 0.0 | 0.0 | 0.00 | 0.00 | 0.00 | 79 | 1020.0 |
| 20260502041525 | 34 | 326 | 0.0 | 0.0 | 0.00 | 0.00 | 0.00 | 79 | 1020.0 |
| 20260502040024 | 35 | 326 | 0.0 | 0.0 | 0.00 | 0.00 | 0.00 | 78 | 1020.1 |
| 20260502034526 | 36 | 326 | 0.0 | 0.0 | 0.00 | 0.00 | 0.00 | 76 | 1020.1 |
| 20260502033031 | 36 | 326 | 0.0 | 0.0 | 0.00 | 0.00 | 0.00 | 74 | 1020.1 |
| 20260502031526 | 38 | 326 | 0.0 | 0.0 | 0.00 | 0.00 | 0.00 | 70 | 1019.9 |
| 20260502030028 | 39 | 326 | 0.0 | 0.0 | 0.00 | 0.00 | 0.00 | 68 | 1019.7 |
| 20260502024526 | 40 | 326 | 0.0 | 0.0 | 0.00 | 0.00 | 0.00 | 63 | 1019.6 |
| 20260502023026 | 41 | 326 | 0.0 | 0.0 | 0.00 | 0.00 | 0.00 | 61 | 1019.6 |
| 20260502021528 | 42 | 326 | 0.0 | 0.0 | 0.00 | 0.00 | 0.00 | 56 | 1019.4 |
| 20260502020026 | 44 | 326 | 0.0 | 0.0 | 0.00 | 0.00 | 0.00 | 51 | 1019.2 |
| 20260502014520 | 47 | 326 | 0.0 | 0.9 | 0.00 | 0.00 | 0.00 | 45 | 1019.1 |
| 20260502013023 | 48 | 352 | 0.0 | 3.5 | 0.00 | 0.00 | 0.00 | 41 | 1018.9 |
| 20260502011528 | 49 | 349 | 0.0 | 1.7 | 0.00 | 0.00 | 0.00 | 40 | 1018.6 |
| 20260502010031 | 51 | 355 | 0.9 | 3.5 | 0.00 | 0.00 | 0.00 | 38 | 1018.6 |
| 20260502004545 | 52 | 36 | 0.9 | 3.5 | 0.00 | 0.00 | 0.00 | 37 | 1018.4 |
| 20260502003019 | 52 | 311 | 0.0 | 3.5 | 0.00 | 0.00 | 0.00 | 38 | 1018.2 |
| 20260502001525 | 53 | 279 | 3.5 | 6.1 | 0.00 | 0.00 | 0.00 | 35 | 1018.2 |
| 20260502000030 | 53 | 321 | 3.5 | 8.7 | 0.00 | 0.00 | 0.00 | 35 | 1018.3 |
| 20260501234528 | 54 | 326 | 1.7 | 8.7 | 0.00 | 0.00 | 0.00 | 35 | 1018.1 |
| 20260501233028 | 54 | 314 | 2.6 | 9.6 | 0.00 | 0.00 | 0.00 | 34 | 1018.0 |
| 20260501231523 | 55 | 273 | 2.6 | 8.7 | 0.00 | 0.00 | 0.00 | 35 | 1017.9 |
| 20260501230005 | 55 | 316 | 3.5 | 9.6 | 0.00 | 0.00 | 0.00 | 34 | 1017.9 |
| 20260501224509 | 55 | 352 | 1.7 | 7.8 | 0.00 | 0.00 | 0.00 | 35 | 1017.9 |
| 20260501223014 | 55 | 300 | 5.2 | 9.6 | 0.00 | 0.00 | 0.00 | 34 | 1017.8 |
| 20260501221518 | 55 | 283 | 2.6 | 7.8 | 0.00 | 0.00 | 0.00 | 34 | 1017.8 |
| 20260501220030 | 55 | 304 | 2.6 | 9.6 | 0.00 | 0.00 | 0.00 | 33 | 1017.8 |
| 20260501214528 | 56 | 29 | 1.7 | 10.4 | 0.00 | 0.00 | 0.00 | 37 | 1017.8 |
| 20260501213028 | 56 | 321 | 0.9 | 7.0 | 0.00 | 0.00 | 0.00 | 36 | 1017.7 |
| 20260501211514 | 56 | 302 | 4.3 | 9.6 | 0.00 | 0.00 | 0.00 | 38 | 1017.9 |
| 20260501210035 | 56 | 319 | 4.3 | 7.0 | 0.00 | 0.00 | 0.00 | 31 | 1018.0 |
| 20260501204526 | 56 | 313 | 2.6 | 10.4 | 0.00 | 0.00 | 0.00 | 35 | 1018.2 |
| 20260501203028 | 56 | 287 | 1.7 | 7.8 | 0.00 | 0.00 | 0.00 | 34 | 1018.2 |
| 20260501201517 | 55 | 326 | 2.6 | 7.8 | 0.00 | 0.00 | 0.00 | 34 | 1018.3 |
| 20260501200020 | 55 | 307 | 5.2 | 9.6 | 0.00 | 0.00 | 0.00 | 37 | 1018.4 |
| 20260501194525 | 56 | 299 | 2.6 | 8.7 | 0.00 | 0.00 | 0.00 | 37 | 1018.3 |
| 20260501193025 | 56 | 336 | 5.2 | 12.2 | 0.00 | 0.00 | 0.00 | 40 | 1018.3 |
| 20260501191531 | 56 | 360 | 1.7 | 7.8 | 0.00 | 0.00 | 0.00 | 41 | 1018.3 |
| 20260501190014 | 56 | 320 | 3.5 | 8.7 | 0.00 | 0.00 | 0.00 | 41 | 1018.3 |
| 20260501184519 | 54 | 338 | 3.5 | 9.6 | 0.00 | 0.00 | 0.00 | 44 | 1018.4 |
| 20260501183026 | 55 | 337 | 4.3 | 10.4 | 0.00 | 0.00 | 0.00 | 46 | 1018.4 |
| 20260501181523 | 54 | 289 | 3.5 | 7.0 | 0.00 | 0.00 | 0.00 | 46 | 1018.4 |
| 20260501180042 | 55 | 304 | 1.7 | 7.0 | 0.00 | 0.00 | 0.00 | 49 | 1018.3 |
| 20260501174520 | 53 | 360 | 3.5 | 9.6 | 0.00 | 0.00 | 0.00 | 48 | 1018.6 |
| 20260501173022 | 54 | 292 | 3.5 | 8.7 | 0.00 | 0.00 | 0.00 | 51 | 1018.5 |
| 20260501171523 | 53 | 325 | 2.6 | 10.4 | 0.00 | 0.00 | 0.00 | 51 | 1018.7 |
| 20260501170024 | 53 | 295 | 3.5 | 10.4 | 0.00 | 0.00 | 0.00 | 55 | 1018.7 |
| 20260501164526 | 53 | 328 | 4.3 | 11.3 | 0.00 | 0.00 | 0.00 | 53 | 1018.7 |
| 20260501163016 | 51 | 294 | 2.6 | 7.0 | 0.00 | 0.00 | 0.00 | 59 | 1018.5 |
| 20260501161527 | 50 | 342 | 1.7 | 7.8 | 0.00 | 0.00 | 0.00 | 63 | 1018.6 |
| 20260501160024 | 52 | 284 | 4.3 | 8.7 | 0.00 | 0.00 | 0.00 | 60 | 1018.6 |
| 20260501154524 | 51 | 297 | 3.5 | 7.0 | 0.00 | 0.00 | 0.00 | 64 | 1018.6 |
| 20260501153026 | 50 | 347 | 4.3 | 7.0 | 0.00 | 0.00 | 0.00 | 64 | 1018.6 |
| 20260501151525 | 49 | 316 | 2.6 | 7.8 | 0.00 | 0.00 | 0.00 | 65 | 1018.5 |
| 20260501150037 | 48 | 3 | 2.6 | 7.8 | 0.00 | 0.00 | 0.00 | 67 | 1018.3 |
| 20260501144527 | 48 | 323 | 1.7 | 5.2 | 0.00 | 0.00 | 0.00 | 68 | 1018.4 |